Regional Weather Roundup
Issued by NWS

Home | Current Version | Previous Version | Graphics & Text | Print | Product List | Glossary Off
Versions: 1 2 3 4 5 6 7 8 9 10 11 12 13 14 15 16 17 18 19 20 21 22 23 24 25 26 27 28 29 30 31 32 33 34 35 36 37 38 39 40 41 42 43 44 45 46 47 48 49 50

000
ASUS45 KSLC 281810
RWRUT

UTAH REGIONAL WEATHER ROUNDUP
NATIONAL WEATHER SERVICE SALT LAKE CITY UT
1200 PM MDT TUE JUL 28 2015

UTZ001>011-023>025-281900-

NORTHERN UTAH

CITY           SKY/WX    TMP DP  RH WIND       PRES   REMARKS
BRIGHAM CITY   SUNNY     68  21  17 CALM      30.29F
HILL AFB       SUNNY     66  27  22 VRB1      30.30S
LOGAN          SUNNY     65  30  27 CALM      30.30S
OGDEN          SUNNY     69  25  19 MISG      30.29R
PROVO AIRPORT  SUNNY     70  34  26 NW7       30.28S
SALT LAKE CITY SUNNY     70  25  18 NW12      30.27F
VERNAL         SUNNY     72  33  24 S7        30.23F
WENDOVER       SUNNY     70  25  18 E10       30.29S
HEBER CITY     SUNNY     68  32  26 CALM      30.30S
WEST JORDAN    SUNNY     68  25  19 N9        30.29F

$$

UTZ012>022-026-027-281900-

SOUTHERN/CENTRAL UTAH

CITY           SKY/WX    TMP DP  RH WIND       PRES   REMARKS
BLANDING       SUNNY     82  31  16 SE7       30.27F
BRYCE CANYON   SUNNY     74  33  22 VRB6      30.34F
CEDAR CITY     SUNNY     75  34  22 CALM      30.24F
DELTA          SUNNY     74  26  16 N9        30.25S
HANKSVILLE     SUNNY     82  32  16 N3        30.16S
MILFORD        SUNNY     75  32  20 N17G25    30.23F
MOAB/CYNLANDS  SUNNY     82  33  17 W9        30.14R
PRICE          SUNNY     78  27  15 CALM      30.23S
ST GEORGE      CLEAR     84  37  18 N8        30.06S

$$

REGIONAL REPORTS     COLORADO/ARIZONA

CITY           SKY/WX    TMP DP  RH WIND       PRES   REMARKS
CRAIG, CO      SUNNY     71  34  25 N9        30.29F
GRAND JUNCTION SUNNY     81  34  18 VRB5      30.16F
RIFLE          SUNNY     77  30  17 N5        30.20F
MONTROSE       SUNNY     77  35  21 NW7       30.24F
CORTEZ         PTSUNNY   85  29  13 VRB3      30.20S
PAGE, AZ       SUNNY     85  28  12 VRB5      30.11F
GRAND CANYON   SUNNY     78  27  15 W6G22     30.28S
KINGMAN        SUNNY     92  30  11 SW13G21   30.05S
FLAGSTAFF      MOSUNNY   76  41  28 SW13G18   30.31S

$$

REGIONAL REPORTS    NEVADA/IDAHO/WYOMING

CITY           SKY/WX    TMP DP  RH WIND       PRES   REMARKS
LAS VEGAS, NV  SUNNY     94  30  10 NE8       29.93S
ELY            SUNNY     67  27  22 NE8       30.30F
ELKO           SUNNY     69  24  18 MISG      30.28F
POCATELLO, ID  SUNNY     64  34  32 VRB6      30.34S
BURLEY         SUNNY     64  36  35 CALM      30.31S
EVANSTON, WY   SUNNY     61  15  16 SW10G20   30.36S
ROCK SPRINGS   SUNNY    N/A N/A N/A MISG      30.33S
KEMMERER       SUNNY     59  23  25 W15       30.37R

$$


USA.gov is the U.S. government's official web portal to all federal, state and local government web resources and services.